[[{"header":{"parameterUnit":"m.s-1","parameterCategory":1,"la1":30.2991,"la2":30.254,"lo1":-89.0895,"lo2":-89.0444,"dy":0.0017,"dx":0.0017,"nx":28,"ny":28,"refTime":"2024-06-21T21:00:00:Z","depth":0,"parameterNumber":2,"parameterNumberName":"U-component_of_WINDS"},"data":[0,0,0,0,0,0,0,0,0,0,0,0,0,0,0,0,0,0,0,0,0,0,0,0,0,0,0,0,0,0,0,0,0,0,0,0,0,0,0,0,0,0,0,0,0,0,0,0,0,0,0,0,0,0,0,0,0,0,-4.8465,-4.8465,0,-4.8513,-4.8513,-4.8514,-4.8388,-4.8384,-4.838,-4.8377,-4.8432,-4.8437,-4.8442,0,0,0,0,0,0,0,0,0,0,0,0,0,-4.8271,-4.8276,-4.8465,-4.8465,-4.8466,-4.8513,-4.8513,-4.8514,-4.8389,-4.8384,-4.8379,-4.8375,-4.843,-4.8436,-4.8443,0,0,0,0,0,0,0,0,0,0,0,0,0,-4.8341,-4.8277,-4.8465,-4.8409,-4.8405,-4.8512,-4.8513,-4.8514,-4.839,-4.8384,-4.8378,-4.8373,-4.8428,-4.8436,-4.8443,-4.8609,0,0,-4.8467,-4.847,0,0,0,0,0,0,0,0,-4.8337,-4.8349,-4.8417,-4.8413,-4.8408,-4.8438,-4.8465,-4.8546,-4.8391,-4.8396,-4.8377,-4.837,-4.8439,-4.8446,-4.8468,-4.8612,-4.8614,-4.8468,-4.8472,-4.8476,-4.8478,0,0,0,0,0,0,0,-4.8333,-4.8346,-4.8484,-4.8418,-4.8413,-4.8384,-4.8387,-4.848,-4.845,-4.8395,-4.8386,-4.8393,-4.8436,-4.8461,-4.8468,-4.8615,-4.8468,-4.8474,-4.8479,-4.8482,-4.89,-4.8906,0,0,0,0,0,0,-4.8334,-4.8343,-4.8482,-4.8485,-4.8357,-4.8392,-4.8396,-4.8435,-4.8449,-4.8445,-4.8398,-4.8387,-4.8451,-4.8459,-4.847,-4.8666,-4.8476,-4.8483,-4.8487,-4.8893,-4.8901,-4.8908,0,0,0,0,0,0,-4.8331,-4.8348,-4.848,-4.8411,-4.8426,-4.8402,-4.8446,-4.8439,-4.8463,-4.8451,-4.8446,-4.8428,-4.8446,-4.8459,-4.8575,-4.8666,-4.8486,-4.8493,-4.8886,-4.8896,-4.8905,-4.906,0,0,0,0,0,0,-4.8326,-4.8347,-4.8408,-4.8414,-4.843,-4.8584,-4.8452,-4.8444,-4.8476,-4.8462,-4.8478,-4.8475,-4.8443,-4.8565,-4.8583,-4.8674,-4.8499,-4.8877,-4.889,-4.8901,-4.9046,-4.9074,-4.9097,0,0,0,0,0,-4.8319,-4.8451,-4.8412,-4.843,-4.8506,-4.8589,-4.8599,-4.8557,-4.8484,-4.8547,-4.8539,-4.8475,-4.8653,-4.8578,-4.8597,-4.8692,-4.8871,-4.8886,-4.8901,-4.9035,-4.9068,-4.9096,0,0,0,0,0,0,-4.8459,-4.8451,-4.8407,-4.8545,-4.8568,-4.8568,-4.8645,-4.8593,-4.8639,-4.8624,-4.8572,-4.8577,-4.8704,-4.8709,-4.8625,-4.8854,-4.875,-4.877,-4.8846,-4.8877,-4.8902,-4.8899,-4.8506,0,0,0,0,0,-4.8505,-4.8572,-4.8562,-4.8684,-4.8698,-4.867,-4.8705,-4.867,-4.8693,-4.8703,-4.8704,-4.8731,-4.8793,-4.8835,-4.8891,-4.9046,-4.9049,-4.9121,-4.9146,-4.9167,-4.9185,-4.9269,-4.9302,-4.8956,-4.8956,-4.8955,0,0,-4.8603,-4.8607,-4.8652,-4.8712,-4.8726,-4.8799,-4.8679,-4.876,-4.8814,-4.8716,-4.8826,-4.8828,-4.8855,-4.8992,-4.9052,-4.9,-4.9281,-4.9185,-4.9202,-4.9209,-4.9288,-4.932,-4.9349,-4.8966,-4.8964,-4.8962,0,0,-4.8817,-4.8826,-4.8929,-4.8946,-4.8969,-4.8949,-4.8974,-4.8982,-4.8979,-4.9088,-4.9017,-4.9081,-4.9188,-4.9211,-4.9236,-4.9461,-4.9405,-4.9481,-4.9613,-4.9696,-4.9723,-4.9747,-4.9829,-4.9859,-4.9498,-4.9499,-4.9499,0,-4.8936,-4.904,-4.899,-4.9076,-4.9106,-4.9019,-4.9125,-4.9144,-4.9185,-4.9209,-4.9149,-4.9283,-4.9295,-4.9437,-4.9491,-4.9514,-4.9544,-4.9479,-4.9723,-4.9746,-4.9768,-4.9846,-4.9877,-4.9508,-4.9507,-4.9506,-4.9505,0,-4.9186,-4.9259,-4.934,-4.938,-4.9419,-4.9515,-4.9482,-4.9527,-4.949,-4.9478,-4.9592,-4.9602,-4.966,-4.9691,-4.9656,-4.9829,-4.9797,-4.9731,-4.9626,-4.9811,-4.9884,-4.9913,-4.9521,-4.9518,-4.9515,-4.9513,0,0,-4.949,-4.9501,-4.9532,-4.955,-4.9569,-4.9626,-4.9719,-4.9774,-4.9815,-4.9847,-4.9925,-5.0018,-4.9958,-4.9987,-4.9954,-5.0027,-5.0206,-4.9952,-4.9952,-5.0001,-5.0401,-5.0451,-5.0486,-5.0169,-5.0174,-5.0178,-5.0399,0,-4.9703,-4.986,-4.9818,-4.9976,-5.0045,-4.9964,-5.0045,-5.0067,-5.0058,-5.0117,-5.0108,-5.0176,-5.009,-5.0107,-5.0176,-5.017,-5.0286,-5.0153,-5.0244,-5.0248,-5.0241,-5.0524,-5.0577,-5.0785,-5.0427,-5.0432,-5.0435,0,-4.9972,-5.0012,-5.0177,-5.0186,-5.0213,-5.0287,-5.0335,-5.0391,-5.0415,-5.0404,-5.0437,-5.039,-5.0484,-5.0378,-5.0509,-5.0419,-5.0454,-5.0457,-5.0464,-5.0472,-5.0354,-5.0542,-5.085,-5.0882,-5.0479,-5.0475,-5.0472,0,-5.0179,-5.0275,-5.0386,-5.0404,-5.0417,-5.0471,-5.048,-5.0497,-5.0534,-5.0576,-5.06,-5.0654,-5.0684,-5.0728,-5.0697,-5.0622,-5.0835,-5.0725,-5.083,-5.0832,-5.088,-5.0877,-5.12,-5.09,-5.0899,-5.0899,-5.0898,0,-5.0422,-5.0527,-5.048,-5.0549,-5.0664,-5.0616,-5.0732,-5.0732,-5.0749,-5.0818,-5.0751,-5.0818,-5.0772,-5.0836,-5.0813,-5.0926,-5.094,-5.0936,-5.0929,-5.0943,-5.0944,-5.0966,-5.0951,-5.0907,-5.0905,-5.0903,-5.0902,0,-5.0674,-5.0646,-5.0763,-5.0765,-5.0769,-5.0854,-5.0857,-5.0922,-5.0908,-5.0997,-5.1015,-5.0995,-5.1067,-5.104,-5.1117,-5.1101,-5.1247,-5.122,-5.1238,-5.1232,-5.134,-5.1331,-5.1689,-5.1735,-5.1404,-5.1407,-5.1409,0,-5.0831,-5.0909,-5.0921,-5.0961,-5.0974,-5.104,-5.1076,-5.1033,-5.1074,-5.1108,-5.117,-5.1236,-5.1286,-5.1405,-5.1398,-5.1458,-5.1433,-5.1554,-5.1441,-5.1454,-5.1437,-5.1434,-5.1442,-5.1578,-5.1581,-5.1585,-5.1587,0,-5.1114,-5.1097,-5.1151,-5.1202,-5.1246,-5.1284,-5.1317,-5.1354,-5.1313,-5.1363,-5.1434,-5.1473,-5.1551,-5.1618,-5.1671,-5.1682,-5.163,-5.1622,-5.165,-5.1666,-5.1674,-5.1674,-5.1302,-5.1615,-5.1612,-5.161,-5.1609,-5.1607,-5.1325,-5.1391,-5.1409,-5.1473,-5.1492,-5.1524,-5.1586,-5.158,-5.1638,-5.1697,-5.1668,-5.1752,-5.1777,-5.1842,-5.1861,-5.1928,-5.1881,-5.1921,-5.1931,-5.1942,-5.1957,-5.1663,-5.1937,-5.1936,-5.1935,-5.1935,-5.1934,0,-5.1606,-5.1613,-5.1672,-5.1719,-5.1769,-5.1712,-5.1746,-5.1793,-5.1866,-5.1893,-5.1943,-5.2027,-5.2092,-5.2091,-5.2152,-5.2206,-5.2183,-5.2223,-5.222,-5.2224,-5.1994,-5.1965,-5.2241,-5.2241,-5.2241,-5.2241,-5.224,-5.224,-5.1758,-5.1868,-5.1853,-5.1973,-5.1981,-5.2061,-5.2085,-5.2116,-5.2136,-5.2232,-5.2285,-5.2283,-5.23,-5.2361,-5.242,-5.2418,-5.2444,-5.2494,-5.2484,-5.227,-5.224,-5.2211,-5.2183,-5.25,-5.25,-5.2708,-5.271,-5.2711]},{"header":{"parameterUnit":"m.s-1","parameterCategory":1,"la1":30.2991,"la2":30.254,"lo1":-89.0895,"lo2":-89.0444,"dy":0.0017,"dx":0.0017,"nx":28,"ny":28,"refTime":"2024-06-21T21:00:00:Z","depth":0,"parameterNumber":3,"parameterNumberName":"V-component_of_WINDS"},"data":[0,0,0,0,0,0,0,0,0,0,0,0,0,0,0,0,0,0,0,0,0,0,0,0,0,0,0,0,0,0,0,0,0,0,0,0,0,0,0,0,0,0,0,0,0,0,0,0,0,0,0,0,0,0,0,0,0,0,-1.7111,-1.711,0,-1.6974,-1.6972,-1.6971,-1.6892,-1.6892,-1.6891,-1.6891,-1.6745,-1.6742,-1.6738,0,0,0,0,0,0,0,0,0,0,0,0,0,-1.7302,-1.7299,-1.7112,-1.711,-1.7108,-1.6974,-1.6972,-1.697,-1.6892,-1.6891,-1.6891,-1.6891,-1.6746,-1.6742,-1.6738,0,0,0,0,0,0,0,0,0,0,0,0,0,-1.7198,-1.7298,-1.7112,-1.7053,-1.7046,-1.6974,-1.6972,-1.697,-1.6892,-1.6891,-1.6891,-1.6891,-1.6748,-1.6743,-1.6737,-1.6712,0,0,-1.6721,-1.6718,0,0,0,0,0,0,0,0,-1.7204,-1.7191,-1.7063,-1.7057,-1.7049,-1.695,-1.6986,-1.6883,-1.6892,-1.695,-1.6891,-1.6891,-1.6813,-1.6802,-1.6777,-1.6705,-1.6699,-1.672,-1.6717,-1.6714,-1.6713,0,0,0,0,0,0,0,-1.7211,-1.7196,-1.7057,-1.7062,-1.7053,-1.7032,-1.7017,-1.6966,-1.6886,-1.6945,-1.6939,-1.6924,-1.6809,-1.6783,-1.6773,-1.6696,-1.672,-1.6715,-1.6712,-1.671,-1.6596,-1.6596,0,0,0,0,0,0,-1.7228,-1.7203,-1.7061,-1.7053,-1.7127,-1.7029,-1.7012,-1.6982,-1.6886,-1.6871,-1.6925,-1.6921,-1.6792,-1.678,-1.6768,-1.6731,-1.6714,-1.6709,-1.6706,-1.6595,-1.6596,-1.6596,0,0,0,0,0,0,-1.7233,-1.7216,-1.7067,-1.7126,-1.7105,-1.7026,-1.6993,-1.6979,-1.6953,-1.6871,-1.6855,-1.6913,-1.6791,-1.6775,-1.6726,-1.6725,-1.6707,-1.6702,-1.6595,-1.6595,-1.6596,-1.6659,0,0,0,0,0,0,-1.7238,-1.7218,-1.7209,-1.7126,-1.7103,-1.7029,-1.6993,-1.6977,-1.6944,-1.6938,-1.6855,-1.6841,-1.679,-1.6735,-1.6721,-1.6718,-1.6698,-1.6595,-1.6595,-1.6596,-1.6657,-1.6662,-1.6666,0,0,0,0,0,-1.7246,-1.7231,-1.7209,-1.7192,-1.7089,-1.7029,-1.7015,-1.6958,-1.6945,-1.6934,-1.6881,-1.6844,-1.6728,-1.6731,-1.6714,-1.6709,-1.6595,-1.6595,-1.6596,-1.6655,-1.6661,-1.6666,0,0,0,0,0,0,-1.7314,-1.7219,-1.7194,-1.7152,-1.71,-1.7016,-1.7001,-1.6966,-1.6915,-1.6912,-1.6841,-1.6823,-1.6781,-1.674,-1.6745,-1.6679,-1.6657,-1.6654,-1.6708,-1.6713,-1.6717,-1.6728,-1.6693,0,0,0,0,0,-1.7325,-1.7286,-1.7204,-1.7176,-1.7151,-1.7081,-1.7052,-1.7013,-1.6955,-1.6932,-1.6875,-1.6819,-1.677,-1.6739,-1.6689,-1.665,-1.6631,-1.6639,-1.6643,-1.6647,-1.6646,-1.6622,-1.6624,-1.6598,-1.6598,-1.6598,0,0,-1.7345,-1.7289,-1.7268,-1.7188,-1.7143,-1.7102,-1.7062,-1.7021,-1.699,-1.6925,-1.6876,-1.6832,-1.6765,-1.6721,-1.6699,-1.6685,-1.6649,-1.6648,-1.6652,-1.6648,-1.6623,-1.6625,-1.6628,-1.6598,-1.6598,-1.6598,0,0,-1.7363,-1.7317,-1.7288,-1.7244,-1.7176,-1.713,-1.7123,-1.7045,-1.7014,-1.6964,-1.6914,-1.6875,-1.6792,-1.6746,-1.6712,-1.6713,-1.6677,-1.6698,-1.6722,-1.6699,-1.6701,-1.6703,-1.6703,-1.6704,-1.6697,-1.6697,-1.6697,0,-1.7397,-1.7336,-1.7277,-1.7239,-1.7205,-1.7146,-1.7116,-1.7075,-1.6994,-1.6971,-1.6958,-1.6853,-1.6803,-1.6748,-1.6748,-1.6722,-1.6712,-1.6707,-1.6706,-1.6707,-1.6708,-1.6707,-1.6707,-1.67,-1.67,-1.67,-1.6699,0,-1.7381,-1.7339,-1.7324,-1.725,-1.7213,-1.718,-1.7114,-1.7085,-1.7049,-1.7003,-1.6952,-1.6891,-1.6828,-1.6812,-1.6775,-1.6751,-1.6745,-1.672,-1.6696,-1.6714,-1.6712,-1.6712,-1.6705,-1.6704,-1.6703,-1.6702,0,0,-1.7438,-1.7332,-1.7327,-1.7293,-1.7214,-1.7179,-1.7142,-1.7082,-1.7058,-1.7004,-1.6971,-1.6902,-1.6879,-1.684,-1.6798,-1.6778,-1.6783,-1.6755,-1.6753,-1.6762,-1.6752,-1.6771,-1.6772,-1.6759,-1.6758,-1.6758,-1.6758,0,-1.7444,-1.7377,-1.7323,-1.7275,-1.7235,-1.7179,-1.7146,-1.7094,-1.705,-1.7009,-1.696,-1.6913,-1.6886,-1.6862,-1.684,-1.6787,-1.678,-1.6786,-1.6726,-1.6724,-1.6745,-1.6771,-1.6791,-1.6794,-1.6756,-1.6756,-1.6756,0,-1.7442,-1.7392,-1.7341,-1.7267,-1.7248,-1.722,-1.7161,-1.7123,-1.7061,-1.7031,-1.6989,-1.6945,-1.6902,-1.6883,-1.6822,-1.6828,-1.68,-1.677,-1.6769,-1.6761,-1.6741,-1.6763,-1.6793,-1.6794,-1.6754,-1.6755,-1.6755,0,-1.7488,-1.7408,-1.7367,-1.734,-1.7252,-1.7234,-1.7196,-1.7134,-1.7102,-1.7049,-1.7027,-1.697,-1.6938,-1.6895,-1.6836,-1.6828,-1.6782,-1.6758,-1.6754,-1.6756,-1.6747,-1.6748,-1.6772,-1.6729,-1.6729,-1.6729,-1.6729,0,-1.7501,-1.7472,-1.7387,-1.7362,-1.7328,-1.7265,-1.7232,-1.7189,-1.7135,-1.71,-1.7047,-1.7014,-1.6939,-1.6897,-1.6851,-1.6808,-1.6794,-1.6767,-1.6756,-1.6772,-1.6776,-1.6752,-1.6751,-1.6729,-1.6729,-1.6729,-1.6729,0,-1.7547,-1.7489,-1.7441,-1.7363,-1.7342,-1.732,-1.7252,-1.7224,-1.7179,-1.7134,-1.712,-1.7047,-1.6995,-1.6933,-1.686,-1.6829,-1.679,-1.6772,-1.6811,-1.6804,-1.6804,-1.6805,-1.6814,-1.6812,-1.6772,-1.6772,-1.6773,0,-1.7559,-1.7535,-1.7455,-1.7428,-1.7393,-1.735,-1.7317,-1.7254,-1.7222,-1.7151,-1.7132,-1.7076,-1.7028,-1.6947,-1.6887,-1.6831,-1.6811,-1.6818,-1.6802,-1.682,-1.6811,-1.6813,-1.681,-1.6822,-1.6823,-1.6824,-1.6824,0,-1.7586,-1.7559,-1.7514,-1.7459,-1.7422,-1.7375,-1.7326,-1.7307,-1.7234,-1.72,-1.7147,-1.711,-1.7037,-1.6982,-1.6918,-1.6877,-1.6838,-1.683,-1.6826,-1.6843,-1.6866,-1.6853,-1.6823,-1.683,-1.6829,-1.6829,-1.6829,-1.6828,-1.7614,-1.7591,-1.7531,-1.7483,-1.744,-1.7396,-1.7367,-1.7318,-1.7273,-1.7209,-1.7175,-1.7122,-1.7061,-1.6972,-1.6933,-1.689,-1.6876,-1.6871,-1.6869,-1.6869,-1.6874,-1.6874,-1.6878,-1.6878,-1.6878,-1.6877,-1.6877,0,-1.7639,-1.7598,-1.7554,-1.7488,-1.745,-1.7419,-1.7363,-1.7333,-1.7288,-1.7235,-1.719,-1.7128,-1.7075,-1.7011,-1.6953,-1.6931,-1.6912,-1.6918,-1.6918,-1.691,-1.689,-1.6899,-1.6934,-1.6934,-1.6934,-1.6934,-1.6934,-1.6934,-1.7647,-1.7606,-1.7572,-1.7508,-1.7466,-1.7417,-1.7387,-1.7346,-1.7303,-1.7238,-1.7194,-1.7153,-1.7095,-1.7033,-1.6982,-1.6964,-1.6945,-1.6956,-1.6934,-1.6916,-1.6911,-1.6906,-1.6914,-1.6953,-1.6953,-1.6957,-1.6957,-1.6957]}]]